Regional Weather Roundup
Issued by NWS

Home | Current Version | Previous Version | Text Only | Print | Product List | Glossary Off
Versions: 1 2 3 4 5 6 7 8 9 10 11 12 13 14 15 16 17 18 19 20 21 22 23 24 25 26 27 28 29 30 31 32 33 34 35 36 37 38 39 40 41 42 43 44 45 46 47 48 49 50

000
ASUS43 KFSD 252002
RWRSD

WEATHER ROUNDUP FOR SOUTH DAKOTA
NATIONAL WEATHER SERVICE SIOUX FALLS SD
300 PM CDT SUN SEP 25 2016

NOTE: "FAIR" INDICATES FEW OR NO CLOUDS BELOW 12,000 FEET WITH NO
SIGNIFICANT WEATHER AND/OR OBSTRUCTIONS TO VISIBILITY.


SDZ001>005-009-010-012>017-252100-
NORTHWEST AND NORTH CENTRAL SOUTH DAKOTA

CITY           SKY/WX    TMP DP  RH WIND       PRES   REMARKS
BUFFALO          N/A     63  32  31 NW32G39   30.21S
FAITH            N/A     64  31  28 NW29G39   30.22F
MOBRIDGE       MOSUNNY   66  35  31 NW22G38   30.11S
$$

SDZ012>016-024>037-041>051-057-063-072>074-252100-
SOUTHWEST AND SOUTH CENTRAL SOUTH DAKOTA

CITY           SKY/WX    TMP DP  RH WIND       PRES   REMARKS
RAPID CTY ARPT SUNNY     64  28  25 NW22G37   30.31F
PIERRE         SUNNY     66  31  27 NW30G43   30.16F
CUSTER         SUNNY     55  22  27 NW9G25    30.36F
ELLSWORTH AFB  SUNNY     63  30  28 N28G37    30.30F
PHILIP         SUNNY     66  30  26 NW31G39   30.24F
PINE RIDGE     SUNNY     66  23  19 N10G23    30.31F
WINNER         FAIR      70  32  24 NW31G43   30.19F
$$

SDZ004>011-016>023-039-040-252100-
NORTHEAST SOUTH DAKOTA

CITY           SKY/WX    TMP DP  RH WIND       PRES   REMARKS
ABERDEEN       PTSUNNY   65  38  36 NW25G38   30.04R
WATERTOWN      CLOUDY    62  46  55 NW26G35   30.01R
SISSETON         N/A     64  46  52 NW25G37   29.95R
$$

SDZ017-020-022-023-036>040-048>070-252100-
SOUTHEAST SOUTH DAKOTA

CITY           SKY/WX    TMP DP  RH WIND       PRES   REMARKS
SIOUX FALLS    PTSUNNY   64  47  53 NW20G37   30.06S
HURON          PTSUNNY   66  38  35 NW28G37   30.07R
CHAMBERLAIN    SUNNY     69  35  28 NW31G38   30.16R
MITCHELL       MOSUNNY   70  37  29 NW24G37   30.10S
YANKTON        PTSUNNY  N/A N/A N/A NW26G32   30.09S
$$

ABBREVIATIONS USED IN REMARKS
   TC - TEMPERATURE IN CELSIUS
  WCI - WIND CHILL INDEX
   HX - HEAT INDEX
  VSB - VISIBILITY





USA.gov is the U.S. government's official web portal to all federal, state and local government web resources and services.